Regional Weather Roundup
Issued by NWS

Home | Current Version | Previous Version | Graphics & Text | Print | Product List | Glossary On
Versions: 1 2 3 4 5 6 7 8 9 10 11 12 13 14 15 16 17 18 19 20 21 22 23 24 25 26 27 28 29 30 31 32 33 34 35 36 37 38 39 40 41 42 43 44 45 46 47 48 49 50
000
ASUS43 KMPX 242301
RWRMN
WEATHER ROUNDUP FOR MINNESOTA
NATIONAL WEATHER SERVICE TWIN CITIES/CHANHASSEN MN
500 PM CST SAT FEB 24 2018


NOTE: "FAIR" INDICATES FEW OR NO CLOUDS BELOW 12,000 FEET WITH NO
SIGNIFICANT WEATHER AND/OR OBSTRUCTIONS TO VISIBILITY. N/A MEANS
CURRENT SKY AND/OR WEATHER CONDITIONS ARE NOT AVAILABLE.

MNZ060>063-068>070-250000-
   Twin Cities Metro

CITY           SKY/WX    TMP DP  RH WIND       PRES   REMARKS
TWIN CITIES    SNOW      28  27  96 NE7       29.67F VSB 1/2 WCI  21
ST PAUL        SNOW      28  26  92 NE9       29.68F VSB 1/2 WCI  19
CRYSTAL        SNOW      26  24  92 NE6       29.67F VSB 1/4 WCI  19
BLAINE         LGT SNOW  28  27  93 NE9       29.67F VSB 3/4 WCI  20
LAKEVILLE      LGT SNOW  25  25 100 NE6       29.66F WCI  18
EDEN PRAIRIE   SNOW      27  24  89 NE7       29.66F VSB 1/2 WCI  19
SOUTH ST PAUL  MIX PCPN  29  28  95 CALM      29.67F
LAKE ELMO      LGT SNOW  28  27  93 NE13      29.67F VSB 1   WCI  18
$$
MNZ001>005-007-008-013>017-022>024-027-028-250000-
   Northwest Minnesota

CITY           SKY/WX    TMP DP  RH WIND       PRES   REMARKS
BEMIDJI        LGT SNOW  19   9  65 E7        29.76F WCI  10
HALLOCK        FAIR      18   9  68 S14       29.79F WCI   4
ROSEAU         FAIR      23  10  58 CALM      29.79F
WARROAD        FAIR      25  10  54 CALM      29.80F
THIEF RVR FALL CLOUDY    22  12  65 CALM      29.78F
CROOKSTON      LGT SNOW  16  12  86 E3        29.79F VSB 3/4
FOSSTON        FAIR      21   9  58 CALM      29.76F
DETROIT LAKES  LGT SNOW  21  19  93 E6        29.69F WCI  14
MOORHEAD       SNOW      16  14  93 N8        29.73F VSB 1/2 WCI   5
PARK RAPIDS    SNOW      19  15  84 NE9       29.71F VSB 1/4 WCI   8
MAHNOMEN       CLOUDY    22  13  69 E8        29.75F WCI  12
$$
MNZ006-009>011-018-025>026-250000-
   North Central Minnesota

CITY           SKY/WX    TMP DP  RH WIND       PRES   REMARKS
BAUDETTE       CLOUDY    23   9  55 SE3       29.80F
FLAG ISLAND    FAIR      19  10  68 S8        29.81F WCI   9
INTL FALLS     MOCLDY    26  12  55 SE3       29.84F
WASKISH        FAIR      25  10  54 E7        29.82F WCI  17
LONGVILLE      FLURRIES  21  10  63 NE3       29.76F
GRAND RAPIDS   CLOUDY    25  12  58 E6        29.81F WCI  18
CRANE LAKE     FAIR      27  18  69 CALM      29.87F
ORR            MOCLDY    25  10  54 CALM      29.81F
COOK             N/A     25  12  58 E5        29.83F WCI  19
WALKER         LGT SNOW  19  10  69 E7        29.77F WCI  10
$$
MNZ012-019>021-037-250000-
   Northeast Minnesota

CITY           SKY/WX    TMP DP  RH WIND       PRES   REMARKS
DULUTH         CLOUDY    24  17  74 E13       29.80F WCI  12
ELY            FAIR      27  10  50 E7        29.85F WCI  19
HIBBING        CLOUDY    24  11  57 E3        29.82F
DULUTH HARBOR  MOCLDY    25  21  86 NE20G25   29.87F WCI  11
TWO HARBORS    FAIR      27  19  74 E9        29.85F WCI  17
GRAND MARAIS     N/A     26  17  68 NE9       29.94F WCI  17
G MARAIS ARPRT FAIR      21  10  63 NE3       29.88F
$$
MNZ029>031-032-039>041-046>048-054>057-064-250000-
   West Central Minnesota

CITY           SKY/WX    TMP DP  RH WIND       PRES   REMARKS
FERGUS FALLS   SNOW      19  18  93 E13G18    29.66F VSB 1/2 WCI   7
WHEATON        SNOW      19  18  93 NE6       29.70F VSB 1/4 WCI  11
MORRIS         LGT SNOW  23  21  93 SE6       29.65F VSB 1   WCI  16
ALEXANDRIA     HVY SNOW  23  20  88 E17       29.63F VSB 1/4 WCI   9
ELBOW LAKE     LGT SNOW  22  20  93 NE13      29.64F VSB 3/4 WCI  10
WADENA         LGT SNOW  19  16  86 NE8       29.67F WCI   9
GLENWOOD       SNOW      23  21  93 E16       29.64F VSB 1/4 WCI  10
APPLETON       SNOW      23  21  93 CALM      29.67F VSB 1/4
BENSON         SNOW      25  21  86 SE8       29.67F VSB 1/4 WCI  16
ORTONVILLE     LGT SNOW  16  12  86 W6        29.68F VSB 1   WCI   7
MADISON        LGT SNOW  16  12  86 W8        29.69F WCI   5
WILLMAR        CLOUDY    23  21  93 E13       29.67F VSB 1/4 WCI  11
$$
MNZ033>034-036-042>043-049>051-058-059-250000-
   Central Minnesota

CITY           SKY/WX    TMP DP  RH WIND       PRES   REMARKS
ST CLOUD       SNOW      24  23  96 E10G22    29.66F VSB<1/4 WCI  14
SAUK CENTRE    SNOW      23  22  94 E17G25    29.62F VSB 1/4 WCI   9
PAYNESVILLE    SNOW      24  23  98 E15G21    29.65F VSB 1/2 WCI  11
AITKIN         FAIR      25  10  54 E7        29.74F WCI  17
PINE RIVER     MOCLDY    19  12  73 NE10      29.76F WCI   8
BRAINERD       CLOUDY    25  11  55 NE9       29.71F WCI  15
STAPLES        LGT SNOW  19  16  86 NE7       29.67F WCI  10
LONG PRAIRIE   SNOW      23  23 100 NE13G18   29.64F VSB<1/4 WCI  11
LITTLE FALLS   HVY SNOW  27  21  80 E9G18     29.66F VSB 1/4 WCI  17
LITCHFIELD     SNOW      25  25 100 E12       29.67F VSB 1/4 WCI  14
BUFFALO        HVY SNOW  25  23  92 NE10      29.69F VSB 1/4 WCI  15
MAPLE LAKE     SNOW      26  24  95 E13       29.68F VSB 1/2 WCI  15
HUTCHINSON     LGT SNOW  25  23  94 E9        29.67F VSB 3/4 WCI  15
$$
MNZ037-044-045-052-053-250000-
   East Central Minnesota

CITY           SKY/WX    TMP DP  RH WIND       PRES   REMARKS
PRINCETON      SNOW      27  25  93 NE10      29.67F VSB 1/4 WCI  17
CAMBRIDGE      SNOW      28  25  86 NE8       29.68F VSB 1/2 WCI  20
RUSH CITY      SNOW      27  25  91 NE9       29.72F VSB 1/2 WCI  18
MOOSE LAKE     CLOUDY    25  18  74 NE10      29.77F WCI  15
HINCKLEY       LGT SNOW  32  23  69 E13G20    29.76F WCI  22
CLOQUET        CLOUDY    23  18  80 E12       29.80F WCI  12
MCGREGOR       CLOUDY    28  16  59 E10       29.78F WCI  19
$$
MNZ071>073-080-081-089-090-097-098-250000-
   Southwest Minnesota

CITY           SKY/WX    TMP DP  RH WIND       PRES   REMARKS
MONTEVIDEO     SNOW      23  21  93 CALM      29.66F VSB 1/2
GRANITE FALLS  SNOW      24  22  94 SE7       29.67F VSB 1/2 WCI  16
CANBY          LGT SNOW  14  11  88 NW5       29.68F WCI   6
MARSHALL       LGT SNOW  18  13  80 SW5       29.66F VSB 3/4 WCI  11
REDWOOD FALLS  HVY SNOW  23  22  96 E10       29.65F VSB 1/4 WCI  12
OLIVIA         LGT SNOW  27  23  86 E14       29.64F VSB 3/4 WCI  15
PIPESTONE      MOSUNNY   18  16  93 S5        29.61F FOG     WCI  11
WORTHINGTON    LGT SNOW  20  17  88 SE7       29.63F FOG     WCI  11
JACKSON        LGT SNOW  19  18  93 CALM      29.63F VSB 3/4
TRACY          LGT SNOW  18  17  95 SW6       29.64S VSB 3/4 WCI  10
SLAYTON        LGT SNOW  17  15  93 SW3       29.63F VSB 3/4
$$
MNZ065>067-074>077-082>085-091>093-250000-
   South Central Minnesota

CITY           SKY/WX    TMP DP  RH WIND       PRES   REMARKS
MANKATO        SNOW      27  24  89 NE6       29.67S VSB 1/2 WCI  20
NEW ULM        LGT SNOW  23  21  93 E13       29.65F VSB 3/4 WCI  11
ST JAMES       LGT SNOW  23  21  93 N7        29.66F VSB 3/4 WCI  15
FAIRMONT       SNOW      25  23  92 N7        29.62F VSB 1/4 WCI  17
GLENCOE        SNOW      27  27 100 NE6       29.67F VSB 1/4 WCI  20
FARIBAULT      MIX PCPN  27  25  93 CALM      29.67R VSB 1/2
OWATONNA       LGT SNOW  30  28  93 SE6       29.66R VSB 3/4 WCI  24
WASECA         SNOW      28  27  93 E5        29.67S VSB 1/2 WCI  23
ALBERT LEA     SNOW      30  30 100 SE6       29.63F VSB 1/2 WCI  24
$$
MNZ078>079-086>088-094>096-250000-
   Southeast Minnesota

CITY           SKY/WX    TMP DP  RH WIND       PRES   REMARKS
ROCHESTER      FRZ RAIN  30  29  96 SE22G28   29.61F VSB 3/4 WCI  17
RED WING       LGT SNOW  30  25  80 E15       29.63F WCI  19
STANTON        MIX PCPN  29  27  91 CALM      29.66R VSB 3/4
DODGE CENTER   MIX PCPN  30  28  93 SE12      29.63R VSB 3/4 WCI  21
WINONA         CLOUDY    34  30  86 SE13G24   29.64F WCI  25
AUSTIN         MIX PCPN  30  28  93 SE5       29.64R WCI  25
PRESTON        MIX PCPN  31  29  93 SE10      29.64S VSB 3/4 WCI  22
$$
ABBREVIATIONS USED IN REMARKS
   TC - TEMPERATURES IN CELSIUS
  WCI - WIND CHILL INDEX
   HX - HEAT INDEX
  VSB - VISIBILITY
$$




USA.gov is the U.S. government's official web portal to all federal, state and local government web resources and services.